AO-07 1 07530U 74089B 21217.49927580 -.00000034 00000-0 70662-4 0 9993 2 07530 101.8573 191.9569 0011873 289.3286 182.4835 12.53649714137879 UO-11 1 14781U 84021B 21217.43665215 .00000123 00000-0 21052-4 0 9991 2 14781 97.5941 214.8693 0006911 283.3522 76.6922 14.83309402993190 LO-19 1 20442U 90005G 21217.43371242 -.00000014 00000-0 11352-4 0 9997 2 20442 98.7443 173.3549 0012234 22.4385 337.7331 14.32993257647848 HUBBLE 1 20580U 90037B 21217.38342205 .00000537 00000-0 21468-4 0 9994 2 20580 28.4699 101.3108 0002592 227.2076 295.8325 15.09697538518419 MET-2/21 1 22782U 93055A 21217.37981352 -.00000002 00000-0 -15672-4 0 9993 2 22782 82.5471 265.0778 0023047 151.4722 219.5148 13.83836632410292 AO-27 1 22825U 93061C 21217.49304160 -.00000005 00000-0 16202-4 0 9999 2 22825 98.9162 236.3083 0007401 249.4871 110.5516 14.30120805453261 IO-26 1 22826U 93061D 21217.31193392 .00000002 00000-0 18683-4 0 9995 2 22826 98.9105 236.0268 0008030 235.9664 124.0755 14.30460633453216 FO-29 1 24278U 96046B 21217.40030487 -.00000057 00000-0 -22615-4 0 9991 2 24278 98.5646 278.8812 0350672 23.0073 338.6350 13.53104987232867 NOAA-15 1 25338U 98030A 21217.69167100 .00000072 00000-0 48543-4 0 9991 2 25338 98.6794 245.7689 0011285 133.4593 226.7527 14.26050257208263 GO-32 1 25397U 98043D 21217.46036655 -.00000028 00000-0 73582-5 0 9999 2 25397 98.7728 162.8848 0000745 3.0196 357.0987 14.23712729198680 ISS 1 25544U 98067A 21217.84588263 .00001643 00000-0 38097-4 0 9992 2 25544 51.6443 97.1528 0001215 252.4511 184.5274 15.48878547296292 NO-44 1 26931U 01043C 21217.53452949 -.00000033 00000-0 19188-4 0 9991 2 26931 67.0513 153.7695 0005820 263.2303 96.8136 14.30627265 36373 SO-50 1 27607U 02058C 21217.63350898 .00000024 00000-0 24023-4 0 9993 2 27607 64.5544 187.9534 0046675 5.3350 354.8240 14.75772222 1975 CO-55 1 27844U 03031E 21217.29742092 .00000053 00000-0 43617-4 0 9993 2 27844 98.6800 224.7678 0008803 301.7046 58.3273 14.22323770938924 CO-57 1 27848U 03031J 21217.30516070 .00000041 00000-0 38192-4 0 9993 2 27848 98.6855 225.3371 0008870 316.4087 43.6389 14.21899274938759 RS-22 1 27939U 03042A 21217.83214315 .00000122 00000-0 30546-4 0 9996 2 27939 98.1474 354.5984 0014104 121.4679 238.7906 14.67007795954765 NOAA-18 1 28654U 05018A 21217.74352252 .00000087 00000-0 71514-4 0 9999 2 28654 98.9912 282.7970 0015065 140.3503 219.8773 14.12627457835498 CO-58 1 28895U 05043F 21217.36461855 .00000119 00000-0 31632-4 0 9995 2 28895 98.0649 349.5516 0017863 59.3380 300.9581 14.63940361841169 Falconsat-3 1 30776U 07006E 21217.21243913 .00004126 00000-0 97900-4 0 9996 2 30776 35.4333 146.7529 0002918 321.1442 38.9076 15.41246473800634 CO-65 1 32785U 08021C 21217.19550470 .00000250 00000-0 32352-4 0 9996 2 32785 97.6142 194.1562 0012374 194.9935 165.0918 14.88764972719497 AAUSAT2 1 32788U 08021F 21217.46225654 .00001118 00000-0 10530-3 0 9999 2 32788 97.5066 210.0705 0013400 103.5321 256.7394 14.95674334721283 DO-64 1 32789U 08021G 21217.74687695 .00001650 00000-0 10750-3 0 9993 2 32789 97.3734 251.2118 0010854 341.3738 18.7093 15.09214933724368 CO-66 1 32791U 08021J 21216.73470317 .00000277 00000-0 33006-4 0 9999 2 32791 97.5737 199.5762 0013643 158.7759 201.4029 14.91467073719973 RS-30 1 32953U 08025A 21217.72496256 .00000021 00000-0 80971-4 0 9993 2 32953 82.5035 20.2806 0018914 228.0277 131.9190 12.43103246599100 PRISM 1 33493U 09002B 21217.43322782 .00000665 00000-0 62146-4 0 9997 2 33493 98.1908 182.3485 0015846 122.8479 237.4270 14.97756475681653 NOAA-19 1 33591U 09005A 21217.71138596 .00000083 00000-0 70364-4 0 9993 2 33591 99.1816 239.6324 0013838 358.8236 1.2900 14.12487395643878 SRMSAT 1 37841U 11058D 21216.72758956 .00000287 00000-0 12691-4 0 9999 2 37841 19.9738 9.3065 0011880 103.9319 284.4595 14.10700056506461 HRBE 1 37855U 11061F 21217.52638273 .00001857 00000-0 95884-4 0 9995 2 37855 101.7119 166.3843 0165683 284.7296 73.5607 15.07979481533570 RS-40 1 38735U 12041C 21217.70921107 .00000001 00000-0 -63024-4 0 9995 2 38735 82.4761 102.3877 0017468 342.8095 17.2387 12.42583242409308 ZACUBE-1 1 39417U 13066B 21217.48326545 .00000308 00000-0 44672-4 0 9998 2 39417 97.5956 199.2777 0058661 2.0443 358.0999 14.81559120416334 GOMX-1 1 39430U 13066Q 21217.75202471 .00000266 00000-0 57275-4 0 9990 2 39430 97.8113 137.9893 0149809 320.1750 38.8535 14.59650177410236 LO-74 1 39440U 13066AA 21217.45724050 .00000274 00000-0 44542-4 0 9992 2 39440 97.6794 184.3935 0081348 76.7544 284.2724 14.76280500413655 AO-73 1 39444U 13066AE 21217.43723821 .00000366 00000-0 50793-4 0 9996 2 39444 97.5860 201.6070 0057438 352.3172 7.7156 14.82476564414694 SPROUT 1 39770U 14029E 21217.88576283 .00001223 00000-0 13738-3 0 9995 2 39770 97.9187 329.1298 0009913 51.0216 309.1899 14.88550993390698 DTUSAT-2 1 40030U 14033W 21217.54473590 .00000340 00000-0 42104-4 0 9990 2 40030 97.9152 144.7813 0012409 20.3689 339.8020 14.89037921386628 EO-80 1 40032U 14033Y 21217.50932571 .00000282 00000-0 36014-4 0 9995 2 40032 97.9159 144.7533 0012365 21.5291 338.6443 14.88996425386593 HODOYOSHI-1 1 40299U 14070B 21217.78514506 .00000922 00000-0 39889-4 0 9999 2 40299 97.2841 290.0285 0012986 166.1898 289.4394 15.24833301374933 FIREBIRD FU3 1 40377U 15003B 21217.37897855 .00002181 00000-0 81433-4 0 9990 2 40377 99.1052 8.8877 0116652 9.4333 350.9051 15.22822670360232 FIREBIRD FU4 1 40378U 15003C 21217.68223767 .00002243 00000-0 83454-4 0 9994 2 40378 99.1059 9.4038 0116700 8.2079 352.1025 15.22877201360295 GRIFEX 1 40379U 15003D 21217.63540406 .00001847 00000-0 76960-4 0 9995 2 40379 99.1015 358.2363 0128164 41.8849 319.2099 15.18372752359658 NO-84 1 40654U 15025D 21216.33559950 .00033034 00000-0 20171-3 0 991 2 40654 54.9752 174.9635 0066720 188.9735 171.0500 15.73960115 14580 XW-2A 1 40903U 15049E 21217.84058367 .00003525 00000-0 74736-4 0 9995 2 40903 97.2328 272.1728 0011820 185.6647 294.6225 15.45685828330421 XW-2C 1 40906U 15049H 21217.83906019 .00000859 00000-0 46996-4 0 9997 2 40906 97.4872 219.5771 0015153 22.9062 60.6997 15.16853442325057 XW-2D 1 40907U 15049J 21217.82160288 .00001005 00000-0 53892-4 0 9994 2 40907 97.4858 219.3723 0014449 19.6298 58.2140 15.17189325325087 LILACSAT-2 1 40908U 15049K 21217.83613681 .00000386 00000-0 24514-4 0 9996 2 40908 97.5059 217.1592 0016714 34.1637 49.3703 15.14504796324702 XW-2E 1 40909U 15049L 21217.82678321 .00001589 00000-0 77456-4 0 9997 2 40909 97.4665 223.4499 0013265 6.0901 75.8199 15.19724818325439 XW-2F 1 40910U 15049M 21217.84526955 .00001647 00000-0 81296-4 0 9998 2 40910 97.4731 222.5496 0014257 5.7040 70.3603 15.19225429325225 XW-2B 1 40911U 15049N 21217.82707427 .00000963 00000-0 51894-4 0 9993 2 40911 97.4855 220.0520 0014350 20.6937 56.9077 15.17104471324976 DCBB 1 40912U 15049P 21217.82677132 .00001819 00000-0 83105-4 0 9994 2 40912 97.4450 226.9114 0013449 336.7625 105.7229 15.21790871325709 TW-1A 1 40928U 15051D 21217.78841206 .00005790 00000-0 11850-3 0 9993 2 40928 97.0750 241.5152 0011355 108.3181 6.7911 15.46423900329316 IO-86 1 40931U 15052B 21217.64505207 .00000750 00000-0 15306-4 0 9993 2 40931 5.9996 261.5789 0013749 18.2420 341.8395 14.76684292316581 ATHENOXAT-1 1 41168U 15077C 21217.76474049 .00002462 00000-0 88947-4 0 9998 2 41168 14.9886 258.4091 0010703 142.2081 4.3527 15.15903706312279 ChubuSat-2 1 41338U 16012B 21217.42632057 .00000376 00000-0 22289-4 0 9994 2 41338 31.0018 234.4845 0013651 258.9677 100.9423 15.00566580299964 ChubuSat-3 1 41339U 16012C 21217.71064828 .00000382 00000-0 22628-4 0 9996 2 41339 31.0110 229.8543 0013445 270.2864 89.6234 15.00711531300006 Horyu-4 1 41340U 16012D 21217.66567889 .00000579 00000-0 36556-4 0 9990 2 41340 31.0037 213.0974 0013710 301.3730 58.5564 15.01952815300196 e-st@r-II 1 41459U 16025D 21217.64313762 .00002001 00000-0 10091-3 0 9999 2 41459 98.1479 356.8005 0158315 256.5425 101.8112 15.08288579289839 AAUSAT4 1 41460U 16025E 21217.70280014 .00002962 00000-0 14018-3 0 9990 2 41460 98.1478 0.9948 0144773 239.3415 119.3478 15.11466074290152 LO-87 1 41557U 16033B 21217.85969064 .00002141 00000-0 76904-4 0 9993 2 41557 97.3945 311.5300 0014347 63.7120 56.4830 15.29691186289083 NuSat2 1 41558U 16033C 21217.85809608 .00002245 00000-0 75531-4 0 9991 2 41558 97.4065 315.5786 0013222 57.7161 60.8302 15.31786105289283 Lapan A3 1 41603U 16040E 21217.91260519 .00000253 00000-0 14748-4 0 9999 2 41603 97.2526 262.9570 0013097 181.6185 350.7499 15.20069144284090 Pratham 1 41783U 16059A 21217.36131685 .00000058 00000-0 20194-4 0 9993 2 41783 97.9608 265.7823 0034960 91.8527 268.6680 14.63155651259404 TY-1 1 41844U 16066D 21217.83609751 .00001320 00000-0 54174-4 0 9993 2 41844 97.3991 227.5435 0013516 330.4814 107.7394 15.25936178263434 CAS-2T 1 41847U 16066G 21217.45429573 .00000141 00000-0 30607-4 0 9991 2 41847 98.5979 276.7770 0366248 74.1996 289.9250 14.38221244248925 EO-88 1 42017U 17008BX 21217.46944073 .00002406 00000-0 89501-4 0 9999 2 42017 97.3134 284.1925 0004305 302.9891 57.0935 15.28462620248748 CAS-4B 1 42759U 17034B 21217.87826389 .00000253 00000-0 28508-4 0 9993 2 42759 43.0175 269.3485 0007008 113.6451 229.2092 15.10296885228612 CAS-4A 1 42761U 17034D 21217.86545139 .00000327 00000-0 32846-4 0 9998 2 42761 43.0168 268.4354 0007341 115.2137 222.6422 15.10385186228618 NIUSat 1 42766U 17036B 21217.53168397 .00001460 00000-0 65017-4 0 9991 2 42766 97.2468 261.7962 0015076 9.8637 350.2893 15.22910602228682 Aalto 1 1 42775U 17036L 21217.37526919 .00001176 00000-0 53052-4 0 9991 2 42775 97.2436 261.8698 0013620 10.2487 349.9025 15.22825491228645 URSA MAIOR 1 42776U 17036M 21217.43473139 .00001296 00000-0 57737-4 0 9991 2 42776 97.2450 262.4218 0013359 9.5319 350.6169 15.23104150228675 Max Valier Sat 1 42778U 17036P 21217.36086893 .00001465 00000-0 63619-4 0 9996 2 42778 97.2517 264.3629 0011966 12.9424 347.2118 15.23783708228730 Pegasus 1 42784U 17036V 21217.40148361 .00001766 00000-0 74227-4 0 9998 2 42784 97.2471 264.9036 0011622 15.9164 344.2437 15.24642751228810 NUDATSat 1 42787U 17036Y 21217.60615101 .00003309 00000-0 12855-3 0 9997 2 42787 97.2512 267.6741 0010989 8.6150 351.5260 15.26699693228837 SUCHAI 1 1 42788U 17036Z 21217.37446987 .00002176 00000-0 88624-4 0 9995 2 42788 97.2482 265.9316 0010965 13.4057 346.7471 15.25476982228942 SKCUBE 1 42789U 17036AA 21216.95313384 .00002178 00000-0 89464-4 0 9998 2 42789 97.2475 265.2119 0010984 15.7662 344.3916 15.25192582228788 VZLUSAT 1 1 42790U 17036AB 21217.40443582 .00002792 00000-0 10903-3 0 9998 2 42790 97.2508 267.4670 0010087 9.8280 350.3155 15.26666447228955 VENTA 1 1 42791U 17036AC 21217.39541503 .00001856 00000-0 76806-4 0 9994 2 42791 97.2472 265.6483 0010667 14.9750 345.1802 15.25124206228841 Robusta 1B 1 42792U 17036AD 21217.37347438 .00002132 00000-0 86968-4 0 9992 2 42792 97.2478 266.0179 0010499 14.5086 345.6452 15.25443422228880 D-SAT 1 42794U 17036AF 21217.33007071 .00000661 00000-0 61573-4 0 9996 2 42794 97.4600 234.6212 0126873 62.9786 298.4320 14.91628020224345 TechnoSat 1 42829U 17042E 21217.50229859 .00000281 00000-0 33375-4 0 9998 2 42829 97.4629 84.4177 0013874 350.1608 9.9337 14.91316832220992 QIKCOM-1 1 42983U 98067NF 21217.04310534 .00009555 00000-0 90392-4 0 9990 2 42983 51.6370 12.3333 0002929 168.8804 191.2258 15.67750057215023 AO-91 1 43017U 17073E 21217.49921163 .00000599 00000-0 50927-4 0 9991 2 43017 97.7020 119.5365 0255561 140.0949 221.9364 14.79625504200375 EcAMSat 1 43019U 98067NG 21217.60425859 .00032461 00000-0 15228-3 0 9996 2 43019 51.6386 329.5344 0000545 222.0461 138.0500 15.82879663297964 PICSAT 1 43132U 18004X 21216.91106100 .00001842 00000-0 74241-4 0 9993 2 43132 97.4075 291.0203 0010044 45.7539 314.4523 15.26076917198077 AO-92 1 43137U 18004AC 21217.46768210 .00001589 00000-0 65630-4 0 9995 2 43137 97.4047 290.9982 0009850 46.9709 313.2353 15.25447108198136 TianYi 2 1 43155U 18008A 21217.81712049 .00000834 00000-0 51290-4 0 9996 2 43155 97.3998 281.2977 0017877 152.8052 316.4798 15.12570469195535 Zhou Enlai 1 43156U 18008B 21217.83110307 .00001259 00000-0 76429-4 0 9991 2 43156 97.4037 281.1470 0015271 152.0691 319.8029 15.12190290195472 TianYi 6 1 43158U 18008D 21217.44298631 .00001196 00000-0 73990-4 0 9997 2 43158 97.3988 279.2759 0014344 152.8638 219.3695 15.11600455195342 S-Net D 1 43186U 18014G 21217.48222575 .00000610 00000-0 57824-4 0 9991 2 43186 97.6729 124.1810 0009307 278.4686 81.5481 14.97100346191633 S-Net B 1 43187U 18014H 21217.48216201 .00000612 00000-0 58035-4 0 9998 2 43187 97.6728 124.1458 0009311 278.3650 81.6516 14.97099802191630 S-Net A 1 43188U 18014J 21217.48225055 .00000608 00000-0 57680-4 0 9996 2 43188 97.6732 124.1928 0009297 278.4908 81.5260 14.97098639191630 S-Net C 1 43189U 18014K 21217.54957574 .00000638 00000-0 60309-4 0 9997 2 43189 97.6727 124.2042 0009279 278.1130 81.9039 14.97098707190191 FMN 1 1 43192U 18015A 21217.91571464 .00003670 00000-0 13490-3 0 9990 2 43192 97.4945 353.5560 0015783 70.5286 47.0935 15.28442035195140 Shaonian Xing 1 43199U 18015H 21217.88914241 .00002659 00000-0 10031-3 0 9991 2 43199 97.4732 350.5019 0017279 79.3224 19.1219 15.27815761195197 SurfSat 1 43614U 18070B 21217.52796272 .00004604 00000-0 10554-3 0 9999 2 43614 93.0358 326.4490 0014674 162.8896 197.2858 15.42677435162236 CP-7 DAVE 1 43615U 18070C 21217.55478828 .00004718 00000-0 10927-3 0 9997 2 43615 93.0363 326.4098 0014838 163.0564 197.1190 15.42365342162222 ELFIN-B 1 43616U 18070D 21217.54496754 .00006933 00000-0 14387-3 0 9990 2 43616 93.0314 326.6579 0014743 160.6155 199.5667 15.45598650162351 ELFIN-A 1 43617U 18070E 21217.55373530 .00007729 00000-0 15755-3 0 9992 2 43617 93.0362 327.5560 0014204 157.1935 202.9957 15.46123872162378 CubeBel-1 1 43666U 18083E 21217.85122531 .00001529 00000-0 75043-4 0 9995 2 43666 97.4540 245.5955 0014325 4.1626 170.3879 15.19531539153517 Changshagaoxin 1 43669U 18083H 21217.81546358 .00001576 00000-0 80127-4 0 9992 2 43669 97.4449 242.4821 0010662 2.5303 172.4822 15.18280891153376 Ten-Koh 1 43677U 18084G 21217.59705773 .00000089 00000-0 15012-4 0 9994 2 43677 97.9258 340.7770 0014884 229.2193 130.7734 14.90496762150627 PO-101 1 43678U 18084H 21217.68731165 -.00000293 00000-0 -23285-4 0 9999 2 43678 97.9300 343.2352 0008458 245.8092 114.2246 14.91768218150772 IRVINE 01 1 43693U 18088D 21217.34721722 .00003834 00000-0 14698-3 0 9990 2 43693 85.0361 162.4574 0015169 194.4708 165.6104 15.26049711151897 QO-100 1 43700U 18090A 21217.51594936 .00000147 00000-0 00000-0 0 9999 2 43700 0.0134 92.8860 0001855 90.3616 342.5392 1.00273303 9861 Reaktor Hello World 1 43743U 18096AA 21217.46989434 .00002128 00000-0 77807-4 0 9991 2 43743 97.3846 294.6104 0018783 102.2241 258.1104 15.29032032149625 MinXSS-2 1 43758U 18099A 21217.46086320 .00000497 00000-0 49175-4 0 9996 2 43758 97.6642 287.6333 0014274 241.5781 118.4002 14.96117722145849 AO-95 1 43770U 18099N 21217.43195310 .00000034 00000-0 82425-5 0 9990 2 43770 97.6628 286.5326 0013008 252.1737 107.8066 14.95379175145775 RANGE-B 1 43772U 18099Q 21217.45023960 .00000181 00000-0 21376-4 0 9995 2 43772 97.6712 287.6225 0012892 237.5042 122.4933 14.95690212145782 RANGE-A 1 43773U 18099R 21217.44120741 -.00000125 00000-0 -62276-5 0 9995 2 43773 97.6559 285.8154 0012249 237.7276 122.2758 14.95255033145769 MOVE-II 1 43780U 18099Y 21217.43997647 .00000166 00000-0 19872-4 0 9995 2 43780 97.6647 287.1325 0012017 247.9861 112.0084 14.96014339145791 SNUSat 2 1 43782U 18099AA 21217.45685544 .00000325 00000-0 34395-4 0 9993 2 43782 97.6622 286.9152 0011536 235.7181 124.2949 14.95612596145799 SnugLite 1 43784U 18099AC 21217.46104783 .00000542 00000-0 53682-4 0 9998 2 43784 97.6586 286.6331 0013707 244.4718 115.5087 14.95743288145813 ITASat 1 1 43786U 18099AE 21216.73957254 .00000790 00000-0 76065-4 0 9993 2 43786 97.6646 286.5673 0013683 246.4312 113.5472 14.95663856145701 EAGLET 1 1 43790U 18099AJ 21217.43165792 .00000039 00000-0 85639-5 0 9998 2 43790 97.6639 287.6761 0011935 248.3381 111.6570 14.96016505145536 ESEO 1 43792U 18099AL 21217.42436115 .00000135 00000-0 17237-4 0 9994 2 43792 97.6604 287.2220 0011762 245.1669 114.8330 14.95765441145581 CSIM 1 43793U 18099AM 21217.01922607 .00001145 00000-0 10529-3 0 9994 2 43793 97.6639 287.2974 0011379 240.1757 119.8334 14.96681371145537 Astrocast 0.1 1 43798U 18099AS 21217.50766902 -.00000130 00000-0 -64075-5 0 9999 2 43798 97.6643 287.9670 0011231 225.4406 134.5900 14.96247346145859 JO-97 1 43803U 18099AX 21217.43107733 .00000084 00000-0 12643-4 0 9998 2 43803 97.6610 286.9904 0013600 244.3452 115.6365 14.95924173145812 Suomi 100 1 43804U 18099AY 21217.43756398 -.00000093 00000-0 -31991-5 0 9996 2 43804 97.6606 286.9592 0013782 244.6388 115.3406 14.95891174145821 Al Farabi 2 1 43805U 18099AZ 21217.49811644 .00000697 00000-0 66972-4 0 9993 2 43805 97.6622 287.2651 0013482 242.9016 117.0833 14.96128629145840 CHOMPTT 1 43855U 18104G 21217.43458832 .00001322 00000-0 52534-4 0 9990 2 43855 85.0352 261.0351 0015683 333.0154 27.0272 15.24142064146550 ISAT 1 43879U 18111D 21217.80259210 .00000052 00000-0 96522-5 0 9999 2 43879 97.6800 124.1826 0012020 302.3451 57.6623 14.96690745140432 UWE-4 1 43880U 18111E 21217.31495427 -.00000099 00000-0 -35916-5 0 9992 2 43880 97.6833 124.2084 0011041 306.2296 53.7905 14.96932089142396 Sparrow 1 43881U 18111F 21217.48435131 .00000839 00000-0 77927-4 0 9994 2 43881 97.6836 124.5159 0010912 301.3909 58.6245 14.96986770142420 Lume 1 1 43908U 18111AJ 21217.49835521 .00001609 00000-0 64110-4 0 9998 2 43908 97.2276 110.6328 0021943 115.1846 245.1671 15.26414786145151 FO-98 1 43933U 19003B 21217.36203746 .00008973 00000-0 32825-3 0 9999 2 43933 97.1805 256.9681 0014906 211.5875 148.4471 15.28174356141579 FO-99 1 43937U 19003F 21217.37503614 .00001956 00000-0 78346-4 0 9994 2 43937 97.1732 258.5933 0022594 194.4740 165.5855 15.25969178141726 MYSat 1 1 44045U 18092F 21217.00388993 .00006014 00000-0 15565-3 0 9996 2 44045 51.6360 189.1703 0010626 26.2617 333.8904 15.40463081138945 AstroCast 0.2 1 44083U 19018F 21217.39829347 .00001675 00000-0 74587-4 0 9990 2 44083 97.3696 277.5589 0013551 153.9205 206.2717 15.22764916130343 AISTechSat 3 1 44103U 19018AB 21217.84611808 .00001312 00000-0 56593-4 0 9999 2 44103 97.3571 278.4091 0013710 162.6214 310.4271 15.24219746130532 AISat 1 1 44104U 19018AC 21217.45512195 .00001590 00000-0 51257-4 0 9996 2 44104 97.4241 294.8557 0056476 179.2419 180.8919 15.32223761131174 Raavana-1 1 44329U 98067QE 21216.78042211 .00103809 00000-0 44017-3 0 9999 2 44329 51.6340 34.4448 0001153 198.3605 161.7357 15.84522190121801 Uguisu 1 44330U 98067QF 21216.73785239 .00092451 00000-0 41178-3 0 9995 2 44330 51.6288 35.5428 0001200 173.0968 187.0052 15.83531568121765 NepaliSat-1 1 44331U 98067QG 21216.78025820 .00091297 00000-0 39157-3 0 9995 2 44331 51.6311 34.3336 0001099 191.8590 168.2387 15.84332841121792 Prox-1 1 44339U 19036A 21216.76569873 .00000926 00000-0 16742-3 0 9995 2 44339 24.0015 29.9128 0011187 347.6962 12.3255 14.53664427112210 Oculus-ASR 1 44348U 19036K 21217.55665996 .00015056 00000-0 19806-3 0 9990 2 44348 28.5092 166.7929 0324191 79.0364 284.6520 15.13763595116358 Armadillo 1 44352U 19036P 21217.46860618 .00021420 00000-0 25952-3 0 9994 2 44352 28.5252 142.2506 0289709 117.0130 246.0346 15.22340256116544 NO-104 1 44354U 19036R 21217.53495920 .00014915 00000-0 19107-3 0 9990 2 44354 28.5250 159.4016 0318927 88.8667 274.8441 15.15348666116411 NO-103 1 44355U 19036S 21216.03600080 .00033513 -57287-5 33146-3 0 9999 2 44355 28.5255 116.0962 0249023 159.4537 201.6278 15.33540392116738 CP9 1 44360U 19036X 21216.80009855 .00066495 -56178-5 35540-3 0 9996 2 44360 28.5025 31.4796 0154227 299.9404 58.5967 15.63332073117506 Move-IIb 1 44398U 19038N 21217.88716787 .00002043 00000-0 11592-3 0 9994 2 44398 97.5861 181.6858 0025129 135.5871 224.7383 15.13852553115242 SONATE 1 44400U 19038Q 21217.86370966 .00000643 00000-0 40339-4 0 9997 2 44400 97.5934 181.4957 0025799 136.8512 223.4747 15.12634908115201 BeeSat 9 1 44412U 19038AC 21217.46519646 .00001162 00000-0 68430-4 0 9995 2 44412 97.5913 181.4131 0023091 141.7096 218.5780 15.13422215114860 JAISAT-1 1 44419U 19038F 21217.55147135 .00001181 00000-0 68616-4 0 9999 2 44419 97.5915 182.0851 0022014 139.4260 220.8617 15.13907574115228 LightSail-2 1 44420U 19036AC 21216.49099541 .00006960 00000-0 13698-2 0 9996 2 44420 24.0060 7.8169 0018534 352.1272 7.8929 14.60119336110520 Taurus 1 1 44530U 19059C 21217.85244193 .00000602 00000-0 18101-3 0 9991 2 44530 98.5531 308.6206 0013221 0.0958 0.0235 14.46130452100220 Duchifat 3 1 44854U 19089C 21217.20229915 .00000538 00000-0 49263-4 0 9999 2 44854 36.9649 172.3300 0007584 180.9713 179.1004 14.99561293 90429 OPS-SAT 1 44878U 19092F 21217.47644526 .00000798 00000-0 44131-4 0 9994 2 44878 97.4762 40.2609 0013840 6.8747 353.2673 15.16659608 90260 TO-108 1 44881U 19093C 21217.77301600 .00000073 00000-0 16045-4 0 9994 2 44881 97.9231 296.0624 0016126 129.2160 231.0484 14.81468612 88036 FloripaSat 1 1 44885U 19093G 21217.76539235 .00000351 00000-0 50472-4 0 9995 2 44885 97.9251 296.7130 0015630 136.6647 223.5795 14.82342022 88074 RS-44 1 44909U 19096E 21217.33456783 .00000016 00000-0 24045-4 0 9999 2 44909 82.5192 80.3343 0217128 339.1287 20.1049 12.79710816 75077 SwampSat-2 1 45115U 19071E 21217.38247998 .00056025 00000-0 68949-3 0 9994 2 45115 51.6333 131.0687 0007444 127.9718 232.1949 15.59653721 85062 HO-107 1 45119U 19071J 21217.53954166 .00002407 00000-0 78125-4 0 9990 2 45119 51.6408 158.8190 0011851 106.1306 254.0983 15.36132760 84716 Phoenix 1 45258U 98067RB 21217.33417389 .00008054 00000-0 11332-3 0 9995 2 45258 51.6394 84.1413 0005776 81.0060 279.1586 15.57650238 82825 AztechSat-1 1 45261U 98067RE 21217.51984991 .00030680 00000-0 26639-3 0 9993 2 45261 51.6351 68.8313 0004987 110.6702 249.4830 15.68802375 83078 QARMAN 1 45263U 98067RG 21217.31627040 .00018758 00000-0 20066-3 0 9992 2 45263 51.6380 76.5189 0005631 99.0032 261.1600 15.63905059 82985 Quetzal 1 1 45598U 98067RL 21216.91352943 .00020168 00000-0 23536-3 0 9998 2 45598 51.6396 83.6104 0002141 163.5040 196.6023 15.61614749 72125 BY70-2 1 45857U 20042B 21217.82521738 .00001156 00000-0 17051-3 0 9996 2 45857 97.9834 293.0621 0012359 61.1957 299.0467 14.77167651 58839 UPMSat 2 1 46276U 20061E 21217.44317598 .00000641 00000-0 36206-4 0 9990 2 46276 97.4302 290.2338 0001980 137.4598 222.6788 15.16547362 50969 AmicalSat 1 46287U 20061R 21217.46202747 .00000772 00000-0 50587-4 0 9996 2 46287 97.4855 289.6523 0001232 307.2161 52.8957 15.10577413 50746 SALSAT 1 46495U 20068K 21217.57769090 .00000857 00000-0 67288-4 0 9995 2 46495 97.6931 154.7857 0015752 267.5876 92.3552 15.03501684 46710 BY70-3 1 46839U 20079N 21217.90224767 .00003184 00000-0 98967-4 0 9997 2 46839 97.2382 290.7808 0008163 40.6052 75.9603 15.34036180 41783 SPOC 1 46921U 98067RR 21217.36953921 .00007614 00000-0 11692-3 0 9993 2 46921 51.6422 91.9310 0001234 245.8254 114.2608 15.55341402 42476 Bobcat-1 1 46922U 98067RS 21216.29715486 .00014482 00000-0 19950-3 0 9993 2 46922 51.6428 95.2935 0000888 241.4045 118.6858 15.57490355 42296 Neutron-1 1 46923U 98067RT 21216.23247718 .00009352 00000-0 14275-3 0 9991 2 46923 51.6421 97.8335 0001025 265.2537 94.8337 15.55192691 42327 CAPE 3 1 47309U 21002A 21217.42639159 .00001701 00000-0 86449-4 0 9994 2 47309 60.6867 108.8421 0046803 74.9911 285.6348 15.20956705 30339 AO-109 1 47311U 21002C 21217.44010759 .00001830 00000-0 90328-4 0 9992 2 47311 60.6850 107.7956 0041449 73.4168 287.1464 15.21818531 30335 MiTEE 1 1 47314U 21002F 21217.39657219 .00002600 00000-0 11773-3 0 9999 2 47314 60.6848 106.4020 0040535 65.7698 294.7617 15.23411772 30365 ExoCube 2 1 47319U 21002L 21217.42258494 .00001436 00000-0 74158-4 0 9993 2 47319 60.6856 108.2559 0043122 75.1233 285.4623 15.21453149 30288 UVSQ-SAT 1 47438U 21006AB 21217.44787340 .00000951 00000-0 57090-4 0 9995 2 47438 97.4843 277.7893 0011118 291.6361 68.3686 15.13253940 29467 YUSAT 1 1 47439U 21006AC 21216.98723498 .00001164 00000-0 69027-4 0 9998 2 47439 97.4846 277.3369 0010977 293.7420 66.2660 15.13263256 29398 SOMP 2b 1 47445U 21006AJ 21216.80616697 .00000886 00000-0 53688-4 0 9994 2 47445 97.4815 277.0424 0010817 298.6284 61.3859 15.13088200 29362 IDEASSat 1 47458U 21006AX 21217.41868210 .00000836 00000-0 51071-4 0 9995 2 47458 97.4905 277.8376 0009890 294.0143 66.0053 15.12951948 29458 RSP-01 1 47925U 98067SB 21217.23815448 .00007286 00000-0 12378-3 0 9992 2 47925 51.6430 97.7847 0001818 193.6048 166.4893 15.52588749 22352 TAUSAT-1 1 47926U 98067SC 21217.25361921 .00008588 00000-0 14055-3 0 9997 2 47926 51.6418 97.1354 0002844 201.1998 158.8875 15.53375302 22350 Tsuru 1 47927U 98067SD 21216.09037744 .00009491 00000-0 16053-3 0 9996 2 47927 51.6428 103.6183 0001912 187.8784 172.2176 15.52305316 22174 STARS-EC 1 47928U 98067SE 21217.55776203 .00009894 00000-0 16331-3 0 9995 2 47928 51.6422 96.1620 0004376 293.9860 66.0671 15.52934240 22389 Maya-2 1 47929U 98067SF 21217.37503722 .00007111 00000-0 12198-3 0 9997 2 47929 51.6429 97.1985 0002021 190.7823 169.3124 15.52356603 22336 OPUSAT-II 1 47930U 98067SG 21217.40079215 .00011512 00000-0 18572-3 0 9990 2 47930 51.6426 96.6231 0002073 183.5159 176.5817 15.53391344 22388 GuaraniSat-1 1 47931U 98067SH 21217.37378103 .00007167 00000-0 12281-3 0 9997 2 47931 51.6432 97.1918 0002049 190.6260 169.4687 15.52372835 22377 CubeSX-Sirius-HSE 1 47951U 21022V 21217.70401488 -.00000062 00000-0 -65060-9 0 9994 2 47951 97.5541 118.8657 0022811 139.6550 306.2089 15.05729867 20468 CubeSX-HSE 1 47952U 21022W 21217.83360904 .00000048 00000-0 75412-5 0 9996 2 47952 97.5538 118.9962 0022535 139.1655 307.7516 15.05769384 20480 KSU-Cubesat 1 47954U 21022Y 21217.54480494 .00001168 00000-0 84245-4 0 9990 2 47954 97.5544 118.7370 0022483 140.4453 219.8420 15.05861398 20163 GRBAlpha 1 47959U 21022AD 21217.90905860 .00000074 00000-0 93229-5 0 9992 2 47959 97.5547 119.0812 0022604 139.0134 355.3440 15.05769041 19316 Orbicraft-Zorkiy 1 47960U 21022AE 21217.82826266 .00000515 00000-0 39571-4 0 9996 2 47960 97.5558 119.0352 0022124 139.7555 309.3420 15.05840669 19997 STECCO 1 47962U 21022AG 21217.79920759 .00001425 00000-0 99217-4 0 9990 2 47962 97.5523 119.1582 0018012 136.0877 294.4765 15.06918602 19300 DO-111 1 47963U 21022AH 21217.55134024 .00002535 00000-0 17048-3 0 9991 2 47963 97.5539 119.0133 0020535 133.2103 227.0844 15.07475927 19290 MO-110 1 47964U 21022AJ 21217.29796377 .00000745 00000-0 53436-4 0 9991 2 47964 97.5533 118.7307 0020839 134.6369 225.6562 15.07181898 19236 RamSat 1 48850U 98067SL 21217.53701573 .00005807 00000-0 10854-3 0 9990 2 48850 51.6427 98.2582 0003677 329.8619 30.2158 15.50295918 8122 MO-112 1 48868U 98067SP 21217.73242939 .00010950 00000-0 19507-3 0 9996 2 48868 51.6426 97.3143 0002007 333.0849 27.0036 15.50650312 6930 TUBIN 1 48900U 21059X 21217.87299830 .00000567 00000-0 36501-4 0 9994 2 48900 97.5145 346.0765 0011967 107.5565 8.8659 15.12209685 6201 /EX